Location: Mansfield Dam
(30.3944°N, 97.9097°W)
Time: 00:50:40
(UTC-05:00)

Daily predictions for brighter satellites

Satellite Brightness Start Highest point End
(mag) Time Altitude Azimuth Time Altitude Azimuth Time Altitude Azimuth
NOSS 3-2 (A) 3.9 00:07:49 56° N 00:07:49 56° N 00:13:00 10° NNE
USA 234 3.4 00:09:10 70° NW 00:09:10 70° NW 00:14:53 10° NW
Cosmos 2082 Rocket 4.3 00:31:09 18° NE 00:31:09 18° NE 00:32:42 10° NE
Atlas Centaur 2 3.9 00:24:06 10° W 00:28:39 37° W 00:28:39 37° W
Cosmos 1943 Rocket 4.1 00:29:25 10° NW 00:31:58 21° WNW 00:31:58 21° WNW
CENTAUR R/B 4.1 01:03:49 25° NE 01:03:49 25° NE 01:06:36 10° NE
CZ-4C R/B 4.0 01:02:16 24° NW 01:02:16 24° NW 01:06:35 10° N
Cosmos 1980 Rocket 3.9 01:49:29 10° N 01:53:00 29° NNE 01:53:00 29° NNE
Cosmos 2344 4.4 01:56:17 40° WNW 01:57:11 41° NW 02:05:01 10° NNE
Lacrosse 5 4.1 01:52:48 10° NNW 01:55:03 22° N 01:55:03 22° N
Cosmos 2082 Rocket 4.2 02:12:58 20° NW 02:12:58 20° NW 02:15:56 10° NNW
Cosmos 1697 Rocket 4.3 02:08:03 10° NNW 02:10:50 30° NNW 02:10:50 30° NNW
ATLAS 5 CENTAUR R/B 4.3 02:18:55 15° ENE 02:18:55 15° ENE 02:20:00 10° NE
Lacrosse 5 rocket 4.3 02:16:55 10° N 02:19:06 15° NE 02:19:06 15° NE
USA 215 4.1 02:22:26 10° NE 02:26:49 40° E 02:26:49 40° E
CENTAUR R/B 4.1 02:50:58 23° NW 02:51:20 23° NW 02:56:31 10° N
BREEZE-M DEB (TANK) 4.4 02:54:26 57° NE 02:54:26 57° NE 03:03:35 10° NE
SL-16 R/B 3.1 02:55:14 10° N 03:00:26 45° ENE 03:00:26 45° ENE
Cosmos 2322 Rocket 2.7 03:05:12 10° NNW 03:09:55 54° NNE 03:09:55 54° NNE
CZ-2D R/B 4.1 03:17:57 10° NE 03:21:38 19° E 03:22:42 18° ESE
USA 229 DEB 3.9 03:24:10 56° SE 03:24:31 57° ESE 03:31:18 10° NE
USA 229 3.9 03:24:15 55° SE 03:24:37 56° ESE 03:31:24 10° NE
OAO 3 Rocket 4.1 03:35:55 43° NE 03:35:55 43° NE 03:39:31 10° E
NPP 4.1 03:31:09 10° N 03:35:33 52° NW 03:35:33 52° NW
Cosmos 2181 Rocket 3.9 03:31:55 10° N 03:38:07 80° E 03:38:41 73° SE
Cosmos 1980 Rocket 4.4 03:33:49 10° NW 03:34:43 14° NW 03:34:43 14° NW
Cosmos 2298 Rocket 4.4 03:38:45 57° E 03:38:45 57° E 03:43:46 10° NNE
Cosmos 2360 Rocket 3.6 03:34:13 10° N 03:39:21 35° ENE 03:44:09 11° SE
Cosmos 304 Rocket 4.4 03:37:25 10° N 03:42:08 53° ENE 03:42:09 53° ENE
Cosmos 923 Rocket 4.2 03:38:09 10° NNW 03:42:32 63° NNW 03:42:32 63° NNW
Spot 4 Rocket 4.0 03:43:36 10° NNE 03:48:32 80° NE 03:48:32 80° NE
Cosmos 1680 Rocket 3.4 03:46:12 10° NNW 03:51:23 80° ENE 03:51:23 80° ENE
DELTA 2 R/B (1) 4.2 03:53:15 42° SE 03:53:15 42° SE 03:57:59 10° ENE
Cosmos 2219 3.1 03:54:15 73° SSE 03:54:41 78° ESE 04:00:27 10° NNE
Cosmos 2074 Rocket 4.0 03:55:49 57° SSE 03:57:09 78° E 04:03:24 10° N
IRS-1C 4.4 03:52:53 10° N 03:57:50 54° WNW 03:57:50 54° WNW
Lacrosse 5 rocket 4.1 03:54:34 10° NW 03:54:44 11° NW 03:54:44 11° NW
ATLAS 5 CENTAUR R/B 3.3 04:00:27 26° NW 04:00:27 26° NW 04:04:35 10° N
Cosmos 2322 4.3 03:56:33 10° N 04:02:12 57° ENE 04:06:50 15° SE
Resurs 1-4 Rocket 2.6 03:59:05 10° NNE 04:04:18 54° E 04:05:41 42° SSE
Cosmos 1933 4.1 04:00:36 10° N 04:03:32 47° N 04:03:32 47° N
Cosmos 2184 Rocket 3.9 04:03:57 54° S 04:05:34 88° E 04:11:57 10° N
ERS-1 4.4 04:02:03 10° N 04:07:10 71° WNW 04:07:22 70° W
Cosmos 2327 Rocket 4.3 04:08:45 58° SSW 04:10:03 81° W 04:16:16 10° N
ARIANE 5 R/B 2.3 04:05:05 10° NNE 04:10:09 89° WNW 04:10:39 73° SSW
USA 215 4.2 04:05:41 10° NNE 04:11:32 36° NW 04:14:09 26° W
Cosmos 1898 Rocket 3.3 04:13:44 70° WSW 04:14:10 75° WNW 04:19:21 10° NNE
ATLAS CENTAUR R/B 3.6 04:11:43 10° N 04:15:35 27° NE 04:19:11 10° ESE
SL-16 R/B 2.9 04:11:19 13° SSE 04:16:50 64° ENE 04:23:01 10° N
Cosmos 1937 Rocket 3.5 04:16:19 57° S 04:17:24 80° ESE 04:22:42 10° NNE
IRS-1D 3.5 04:13:07 10° N 04:18:27 84° WNW 04:19:30 59° SSW
Okean O Rocket 3.3 04:15:04 10° NE 04:18:52 28° E 04:21:02 19° SE
Cosmos 1892 3.9 04:24:34 30° SE 04:25:45 38° E 04:29:22 10° NNE
Cosmos 1869 Rocket 4.4 04:28:06 35° WNW 04:28:06 35° WNW 04:31:39 10° NNW
GENESIS II 4.4 04:26:47 10° NNW 04:30:18 60° WNW 04:30:18 60° WNW
FUSE 4.5 04:31:21 39° S 04:31:38 39° S 04:36:37 10° ESE
Cosmos 389 Rocket 4.1 04:29:22 10° NNE 04:32:45 34° E 04:35:28 14° SE
CZ-3A R/B 4.4 04:36:41 11° SSE 04:36:41 11° SSE 04:37:04 10° SSE
COSMOS 2428 3.5 04:30:04 10° N 04:35:36 52° ENE 04:41:06 10° SE
CZ-2D R/B 3.9 04:32:30 10° NNE 04:36:30 56° E 04:37:54 35° SSE
IRS-1C Rocket 4.4 04:32:39 10° NNE 04:37:53 62° ESE 04:41:02 24° S
Cosmos 2221 Rocket 4.4 04:35:35 10° NNW 04:39:22 35° W 04:39:22 35° W
MOS 1-B 4.3 04:34:17 10° N 04:40:03 72° WNW 04:42:35 35° SSW
SEDSat Delta rocket 4.0 04:37:42 24° W 04:41:50 62° SSW 04:48:26 10° ESE
SL-16 R/B 4.0 04:40:35 10° WNW 04:42:14 15° WNW 04:42:14 15° WNW
SME Rocket 4.4 04:37:37 10° SSE 04:44:41 61° ENE 04:49:27 10° N
Cosmos 220 Rocket 3.8 04:45:49 48° SSW 04:46:54 76° WNW 04:51:11 10° NNE
ASTRO E2 3.4 04:47:05 36° S 04:47:24 36° SSE 04:51:07 10° E
H-2A R/B 3.9 04:42:28 16° W 04:47:30 88° SSW 05:35:10 10° ESE
NOSS 3-1 (C) 3.4 04:45:10 30° SSW 04:48:08 74° ESE 04:54:19 10° NNE
UNKNOWN OBJECT B 3.0 04:50:15 10° N 04:54:01 53° WNW 04:54:55 42° WSW
Cosmos 1733 Rocket 2.9 04:55:39 33° SSW 04:57:33 73° W 05:01:55 10° N
Cosmos 2237 4.2 04:52:14 10° NNW 04:57:59 88° ENE 05:03:43 10° SSE
Cosmos 2219 Rocket 3.7 04:54:41 10° N 04:59:52 38° ENE 05:05:02 10° SE
CZ-2D R/B 2.7 04:56:52 10° N 05:01:45 40° WNW 05:04:02 26° WSW
CZ-3C R/B 3.0 05:02:05 10° SSE 05:02:43 10° SE 05:03:28 10° SE
Coronas F rocket 1.9 05:02:03 31° SSE 05:03:03 53° E 05:05:44 10° NNE
Centaur AC-125 2.8 05:05:11 26° S 05:05:29 27° SSE 05:08:55 10° E
Meteor 2-3 Rocket 4.4 05:04:44 26° SW 05:07:21 39° WNW 05:12:45 10° N
GPS 2-05 Rocket1 3.7 05:05:59 13° WNW 05:08:42 46° NNE 05:11:59 10° E
GPS 2-04 Rocket1 2.8 05:08:41 33° SSW 05:09:43 46° SSE 05:13:02 10° E
Meteor 2-10 Rocket 3.5 05:08:37 10° N 05:13:46 88° E 05:19:04 10° S
MOZ.5/SAFIR/RUBIN 5/SL-8 4.4 05:12:14 10° SSE 05:16:50 60° ENE 05:21:29 10° N
Okean 1-7 4.4 05:14:48 10° NW 05:17:55 19° W 05:18:25 19° W
OAO 3 Rocket 3.0 05:13:58 10° WNW 05:18:37 74° SSW 05:23:19 10° ESE
ADEOS II 4.0 05:15:07 10° NE 05:19:37 28° E 05:24:06 10° SSE
Cosmos 2341 Rocket 4.2 05:16:40 15° SSW 05:21:49 55° W 05:28:02 10° N
Cosmos 2227 Rocket 2.2 05:17:47 17° SSW 05:22:15 74° WNW 05:27:54 10° NNE
Cosmos 2360 Rocket 3.3 05:18:41 10° NW 05:23:03 24° WSW 05:25:45 17° SW
Sich 1 Rocket 3.7 05:22:52 16° SSW 05:26:18 56° W 05:30:37 10° N
CZ-2C R/B 3.8 05:24:07 10° S 05:28:28 55° W 05:32:57 10° NNW
Nadezhda 3 Rocket 4.3 05:28:45 10° NNW 05:34:34 46° W 05:40:22 10° SSW
SL-8 Rocket 4.0 05:28:28 10° S 05:34:39 77° W 05:40:56 10° N
Cosmos 1908 Rocket 3.6 05:30:44 10° SSW 05:35:06 61° W 05:39:28 10° N
NOSS 3-1 (A) 3.5 05:30:57 15° SW 05:35:45 61° WNW 05:41:59 10° NNE
CZ-4B R/B 3.5 05:31:01 10° N 05:36:19 51° WNW 05:41:43 10° SSW
DELTA 2 R/B (1) 4.1 05:34:01 12° W 05:39:07 56° NNW 05:44:37 10° ENE
Cosmos 1606 3.0 05:36:44 10° N 05:40:30 69° E 05:44:15 10° SSE
Cosmos 1408 2.8 05:37:03 10° S 05:40:41 75° E 05:44:23 10° N
Cosmos 292 Rocket 4.4 05:36:36 10° NW 05:40:53 33° W 05:45:07 10° SSW
Cosmos 2366 rocket 4.1 05:35:12 10° S 05:41:23 84° E 05:47:33 10° N
GOES 2 Rocket 3.0 05:37:30 11° W 05:42:03 69° S 05:46:13 10° E
Cosmos 2333 4.4 05:37:23 10° NNW 05:42:48 49° WSW 05:48:16 10° S
Resurs 1-4 Rocket 3.9 05:40:43 10° NNW 05:43:36 15° WNW 05:46:30 10° W
Meteor 1-10 Rocket 4.4 05:38:10 10° NNW 05:43:46 55° W 05:49:27 10° S
SL-08 R/B 4.4 05:39:09 10° S 05:45:16 79° W 05:51:24 10° N
Cosmos 1674 Rocket 4.1 05:42:25 10° NNW 05:46:26 38° W 05:50:27 10° SSW
Cosmos 1782 3.2 05:43:56 10° NNW 05:47:44 44° W 05:51:30 10° SSW
Cosmos 1241 Rocket 4.5 05:42:36 10° SSW 05:48:47 90° ESE 05:55:01 10° NNE
Iridium 4 Rocket 3.0 05:46:49 10° N 05:50:57 63° W 05:55:03 10° S
ATLAS CENTAUR R/B 2.7 05:51:10 10° WNW 05:54:27 21° WSW 05:57:32 10° SSW
Cosmos 2297 Rocket 2.4 05:49:23 10° SW 05:54:55 56° WNW 06:00:29 10° N
Okean O Rocket 3.2 05:51:55 10° NNW 05:55:00 19° WNW 05:58:04 10° WSW
Thor Agena Rocket 4.0 05:50:22 10° S 05:55:19 41° W 06:00:19 10° NNW
Meteor 1-31 Rocket 4.3 05:52:09 10° NNE 05:55:45 37° E 05:59:22 10° SSE
CZ-4B R/B 4.0 05:52:31 10° NNW 05:56:12 30° WNW 06:00:01 10° SW
Cosmos 1862 3.8 05:55:28 10° SSW 05:59:14 41° W 06:03:01 10° N
ATLAS 2AS CENTAUR R/B 3.2 05:52:26 10° SSW 05:59:37 76° ESE 06:07:31 10° NNE
Cosmos 1825 2.4 05:56:35 10° SSW 06:00:18 52° W 06:04:01 10° N
SL-16 R/B 4.1 05:57:24 10° SW 06:00:46 15° W 06:04:10 10° WNW
Cosmos 1125 Rocket 4.3 05:56:53 10° SW 06:01:38 34° WNW 06:06:26 10° N
PSLV R/B 3.6 05:57:56 10° N 06:02:16 66° WNW 06:06:32 10° SSW
GP-B 4.0 06:02:04 10° NNW 06:05:58 31° W 06:09:52 10° SW
